Hourly Data Report for October 05, 2022

DRYDEN REGIONAL
ONTARIO
Current Station Operator: NAVCAN

49°49'39.000" N
92°44'39.000" W
412.70 m
6032125
71527
YHD

Download Data

Hourly Data (October 2022)
Hourly Data Report for October 5, 2022
TIME
LST
Temp Definition
°C
Dew Point Definition
°C
Rel Hum Definition
%
Precip. Amount Definition
mm

Wind Dir Definition
10's deg

Wind Spd Definition
km/h
Visibility Definition
km
Stn Press Definition
kPa
Hmdx Definition


Wind Chill Definition


Weather Definition


00:00 13.9 13.2 95 0.0 25 11 16.1 96.47     LegendNANA
01:00 13.6 13.1 97 0.0 27 9 16.1 96.45     LegendNANA
02:00 13.1 12.6 97 0.0 29 8 16.1 96.47     LegendNANA
03:00 11.9 11.9 100 0.0 25 9 1.0 96.47     Fog
04:00 11.5 11.5 100 0.0 26 9 0.4 96.48     Fog
05:00 11.3 11.3 100 0.0 27 9 0.8 96.49     Fog
06:00 10.3 10.3 100 0.0 24 8 0.2 96.50     Fog
07:00 10.0 10.0 100 0.0 25 9 0.2 96.51     Fog
08:00 10.6 10.6 100 0.0 25 8 0.2 96.53     Fog
09:00 12.1 12.0 99 0.0 25 9 16.1 96.52     LegendNANA
10:00 13.6 10.6 82 0.0 25 8 16.1 96.50     LegendNANA
11:00 15.2 7.7 61 0.0 32 9 16.1 96.50     LegendNANA
12:00 13.1 10.4 84 0.0 34 11 14.5 96.56     Rain
13:00 12.9 8.9 77 0.0 36 8 16.1 96.52     LegendNANA
14:00 11.6 9.7 88 0.0 36 9 16.1 96.58     LegendNANA
15:00 10.1 9.7 97 0.5 36 5 6.4 96.59     Rain, Fog
16:00 10.1 9.4 95 0.0 32 8 16.1 96.61     LegendNANA
17:00 10.4 9.6 95 0.0 33 11 16.1 96.64     LegendNANA
18:00 9.7 9.1 96 0.0 29 9 16.1 96.69     LegendNANA
19:00 9.3 9.0 98 0.0 29 8 12.9 96.73     LegendNANA
20:00 9.0 8.2 95 0.0 1 11 16.1 96.79     Rain
21:00 7.8 6.4 91 0.2 36 13 16.1 96.87     LegendNANA
22:00 6.4 5.0 91 0.0 35 18 16.1 96.97     LegendNANA
23:00 4.1 2.3 88 0.0 36 22 16.1 97.09     LegendNANA

Notes on Data Quality.

Legend

  • E = Estimated
  • M = Missing
  • NA = Not Available*
  • [empty] = Indicates an unobserved value
Date modified: